Home > Time Zones > World Clock > Weather > Italy > Milan > Past weeks

Flag for Italy Weather past 2 weeks in Milan, Italy

Now
46 °F

Light rain. Broken clouds.


Feels Like: 44 °F
Forecast: 44 / 65 °F
Wind: 6 mph from North

Location: Milan / Linate


UV Index: 0 (Low)

Visibility: N/A


Pressure: 29.68 "Hg

Humidity: 93%

Dew point: 45 °F

Location of MilanLocation

Historic Weather in Milan

°F

Milan temperature yesterday

Maximum temperature yesterday: 64 °F (at 4:50 PM)
Minimum temperature yesterday: 41 °F (at 6:50 AM)
Average temperature yesterday: 54 °F

Past Weeks' High & Low Weather Summary

 TemperatureHumidityPressure
High75 °F (Apr 7, 3:50 PM)100% (Apr 4, 11:50 PM)30.21 "Hg (Apr 4, 11:50 PM)
Low39 °F (Apr 17, 6:20 AM)14% (Apr 16, 2:50 PM)29.62 "Hg (Apr 19, 3:20 AM)
Average59 °F62%29.97 "Hg
* Reported Apr 4 8:20 AM — Apr 19 8:50 AM, Milan, Weather by CustomWeather, © 2014

Note: Actual official high and low records may vary slightly from our data, if they occured in-between our weather recording intervals... More about our weather records

Advertising

Historic Weather Conditions — Data for Previous 24 hours

 ConditionsComfort  
Time TempWeatherWind HumidityBarometerVisibility
8:50 AM
Apr 19
45 °FLight rain. Broken clouds.6 mph100%29.65 "HgN/A
8:20 AM45 °FLight rain. Broken clouds.7 mph93%29.65 "HgN/A
7:50 AM45 °FRain. Broken clouds.8 mph93%29.65 "HgN/A
7:20 AM45 °FRain. Passing clouds.6 mph93%29.65 "Hg5 mi
6:50 AM45 °FRain. Passing clouds.6 mph93%29.65 "Hg4 mi
5:20 AM45 °FRain. Mostly cloudy.9 mph93%29.62 "Hg4 mi
4:50 AM45 °FRain. Mostly cloudy.2 mph93%29.65 "Hg5 mi
4:20 AM45 °FRain. Mostly cloudy.9 mph93%29.65 "Hg5 mi
3:50 AM45 °FLight rain. Mostly cloudy.8 mph93%29.62 "HgN/A
3:20 AM45 °FRain. Mostly cloudy.12 mph100%29.62 "Hg4 mi
2:50 AM46 °FRain. Mostly cloudy.13 mph93%29.65 "Hg4 mi
2:20 AM48 °FRain. Passing clouds.12 mph94%29.65 "Hg4 mi
1:50 AM50 °FLight rain. Passing clouds.14 mph82%29.65 "HgN/A
1:20 AM52 °FPassing clouds.14 mph77%29.65 "HgN/A
12:50 AM52 °FPassing clouds.12 mph82%29.65 "HgN/A
12:20 AM52 °FThundershowers. Passing clouds.13 mph77%29.65 "HgN/A
11:50 PM
Apr 18
52 °FThundershowers. Mostly cloudy.12 mph77%29.65 "HgN/A
10:50 PM55 °FLight rain. Passing clouds.2 mph63%29.65 "HgN/A
10:20 PM59 °FLight rain. Passing clouds.3 mph45%29.65 "HgN/A
9:50 PM59 °FPartly cloudy.6 mph45%29.65 "HgN/A
9:20 PM59 °FPassing clouds.3 mph55%29.65 "HgN/A
8:50 PM61 °FPartly sunny.3 mph52%29.65 "HgN/A
8:20 PM61 °FPartly sunny.3 mph52%29.65 "HgN/A
7:50 PM61 °FScattered clouds.3 mph52%29.65 "HgN/A
7:20 PM63 °FScattered clouds.5 mph49%29.65 "HgN/A
6:50 PM63 °FScattered clouds.7 mph49%29.65 "HgN/A
6:20 PM63 °FScattered clouds.7 mph45%29.65 "HgN/A
5:50 PM64 °FScattered clouds.5 mph40%29.68 "HgN/A
5:20 PM64 °FScattered clouds.5 mph32%29.68 "HgN/A
4:50 PM64 °FScattered clouds.2 mph22%29.68 "HgN/A
4:20 PM63 °FScattered clouds.2 mph25%29.68 "HgN/A
3:50 PM63 °FScattered clouds.2 mph24%29.71 "HgN/A
3:20 PM61 °FScattered clouds.3 mph27%29.71 "HgN/A
2:50 PM61 °FScattered clouds.5 mph29%29.74 "HgN/A
2:20 PM63 °FScattered clouds.3 mph30%29.74 "HgN/A
1:50 PM61 °FScattered clouds.2 mph31%29.74 "HgN/A
1:20 PM61 °FScattered clouds.2 mph31%29.77 "HgN/A
12:50 PM61 °FScattered clouds.2 mph34%29.77 "HgN/A
12:20 PM59 °FScattered clouds.2 mph34%29.80 "HgN/A
11:50 AM59 °FScattered clouds.2 mph39%29.80 "HgN/A
11:20 AM55 °FScattered clouds.2 mph44%29.83 "HgN/A
10:50 AM54 °FScattered clouds.3 mph47%29.83 "HgN/A
10:20 AM52 °FScattered clouds.3 mph58%29.83 "HgN/A
9:50 AM52 °FScattered clouds.2 mph58%29.86 "HgN/A
9:20 AM50 °FScattered clouds.3 mph58%29.86 "HgN/A
Weather by CustomWeather, © 2014

See weather overview